Location: Mahannah Oil Field
(37.4664°N, 96.6003°W)
Time: 08:27:40
(UTC+00:00)

Courier 1B - Pass Details

Date: 24 January 2021
Orbit: 962 x 1209 km, 28.3° (Epoch: 02 March)

Event Time Altitude Azimuth Distance (km) Brightness Sun altitude
Rises 07:55:48 0° 255° (WSW) 3,675 - -65.1°
Reaches altitude 10° 07:58:40 10° 247° (WSW) 2,706 - -64.7°
Maximum altitude 08:04:34 37° 182° (S) 1,446 - -63.8°
Drops below altitude 10° 08:10:25 10° 117° (ESE) 2,693 - -62.8°
Sets 08:13:16 0° 109° (ESE) 3,655 - -62.4°
